Location: Newark
(49.8410°N, 5.8117°E)
Time: 07:56:48
(UTC+00:00)

Envisat - Visible Passes

Search period start: 26 February 2021 00:00
Search period end: 08 March 2021 00:00
Orbit: 764 x 766 km, 98.1° (Epoch: 25 February)

Date Brightness Start Highest point End Pass type
(mag) Time Alt. Az. Time Alt. Az. Time Alt. Az.
26 Feb 4.6 04:45:36 10° NNE 04:50:19 36° E 04:54:59 10° SSE visible
26 Feb 6.1 17:45:39 10° SW 17:49:00 18° W 17:52:23 10° NW visible
27 Feb 5.8 04:09:36 10° NE 04:13:08 19° E 04:16:38 10° SE visible
27 Feb 3.0 05:47:36 10° N 05:52:41 70° WNW 05:57:43 10° SSW visible
28 Feb 3.7 05:10:47 10° NNE 05:15:50 60° E 05:20:51 10° S visible
28 Feb 6.8 18:14:06 10° W 18:14:48 10° W 18:15:30 10° WNW visible
01 Mar 5.0 04:34:20 10° NNE 04:38:48 30° E 04:43:14 10° SSE visible
02 Mar 6.0 03:58:39 10° NE 04:01:33 15° E 04:04:27 10° ESE visible
02 Mar 3.0 05:36:09 10° NNE 05:41:16 85° WNW 05:46:21 10° SSW visible
03 Mar 4.1 04:59:25 10° NNE 05:04:22 48° E 05:09:16 10° S visible
03 Mar 6.5 18:00:51 10° WSW 18:03:11 13° W 18:05:33 10° WNW visible
04 Mar 5.4 04:23:07 10° NE 04:27:16 24° E 04:31:23 10° SE visible
05 Mar 6.2 03:48:01 10° ENE 03:49:58 12° E 03:51:54 10° ESE visible
05 Mar 3.2 05:24:43 10° NNE 05:29:50 79° ESE 05:34:55 10° S visible
06 Mar 4.5 04:48:05 10° NNE 04:52:53 39° E 04:57:37 10° SSE visible
07 Mar 5.7 04:12:00 10° NE 04:15:43 20° E 04:19:25 10° SE visible
